Regional Weather Roundup
Issued by NWS

Home | Current Version | Previous Version | Graphics & Text | Print | Product List | Glossary On
Versions: 1 2 3 4 5 6 7 8 9 10 11 12 13 14 15 16 17 18 19 20 21 22 23 24 25 26 27 28 29 30 31 32 33 34 35 36 37 38 39 40 41 42 43 44 45 46 47 48 49 50
000
ASUS43 KFSD 230702
RWRSD

WEATHER ROUNDUP FOR SOUTH DAKOTA
NATIONAL WEATHER SERVICE SIOUX FALLS SD
200 AM CDT SUN APR 23 2017

NOTE: "FAIR" INDICATES FEW OR NO CLOUDS BELOW 12,000 FEET WITH NO
SIGNIFICANT WEATHER AND/OR OBSTRUCTIONS TO VISIBILITY.


SDZ001>005-009-010-012>017-230800-
NORTHWEST AND NORTH CENTRAL SOUTH DAKOTA

CITY           SKY/WX    TMP DP  RH WIND       PRES   REMARKS
BUFFALO          N/A     49  39  68 NE7       29.89F
FAITH            N/A     45  38  76 S13       29.97F
MOBRIDGE       CLOUDY    46  39  76 E25       30.01S
$$

SDZ012>016-024>037-041>051-057-063-072>074-230800-
SOUTHWEST AND SOUTH CENTRAL SOUTH DAKOTA

CITY           SKY/WX    TMP DP  RH WIND       PRES   REMARKS
RAPID CTY ARPT CLOUDY    43  31  62 S9        29.99F
PIERRE         PTCLDY    52  30  43 S12       30.02F
CUSTER         CLOUDY    42  26  53 S6        30.05F
ELLSWORTH AFB  CLOUDY    47  31  54 S12       29.98  HAZE
PHILIP         PTCLDY    47  32  56 CALM      30.02F
PINE RIDGE     CLEAR     44  33  65 S12       30.07F
SPEARFISH      FAIR      48  28  46 CALM      29.97F
WINNER         FAIR      51  32  48 S15       30.10S
$$

SDZ004>011-016>023-039-040-230800-
NORTHEAST SOUTH DAKOTA

CITY           SKY/WX    TMP DP  RH WIND       PRES   REMARKS
ABERDEEN       PTCLDY    38  32  79 NE16      30.13R
WATERTOWN      CLEAR     49  37  63 SW12      30.07S
BROOKINGS      CLEAR     45  37  73 S9        30.11F
SISSETON         N/A     39  36  89 N13       30.12S
$$

SDZ017-020-022-023-036>040-048>070-230800-
SOUTHEAST SOUTH DAKOTA

CITY           SKY/WX    TMP DP  RH WIND       PRES   REMARKS
SIOUX FALLS    CLEAR     51  36  56 SW5       30.13F
HURON          CLEAR     48  38  68 S12       30.09S
CHAMBERLAIN    CLEAR     50  37  62 S10       30.10R
MITCHELL       CLEAR     52  36  54 S12       30.11S
YANKTON        CLEAR     48  32  53 S6        30.14F
$$

ABBREVIATIONS USED IN REMARKS
   TC - TEMPERATURE IN CELSIUS
  WCI - WIND CHILL INDEX
   HX - HEAT INDEX
  VSB - VISIBILITY





USA.gov is the U.S. government's official web portal to all federal, state and local government web resources and services.